Weather History for Gulfport, MS

Change the Weather History Date:

Thursday, August 8, 2013

  Actual Average Record
Temperature  
Mean Temperature 86 °F -  
Max Temperature 93 °F 89 °F 100 °F (1956)
Min Temperature 80 °F 72 °F 67 °F (1984)
Cooling Degree Days 20    
Growing Degree Days 36 (Base 50)    
Moisture  
Dew Point 76 °F    
Average Humidity 74    
Maximum Humidity 94    
Minimum Humidity 54    
Precipitation  
Precipitation 0.01 in - - ()
Sea Level Pressure  
Sea Level Pressure 29.93 in    
Wind  
Wind Speed 4 mph (ESE)    
Max Wind Speed 15 mph    
Max Gust Speed 20 mph    
Visibility 9 miles    
Events      
Averages and records for this station are not official NWS values.
T = Trace of Precipitation, MM = Missing Value Source: NWS Daily Summary

Daily Weather History Graph

Daily Weather History Graph

Search for Another Location

Airport:

Trip Planner

Search our weather history database for the weather conditions in past years. The results will help you decide how hot, cold, wet, or windy it might be!

Date:

Astronomy

Aug. 08, 2013 Rise Set
Actual Time 6:19 AM CDT 7:44 PM CDT
Civil Twilight 5:53 AM CDT 8:09 PM CDT
Nautical Twilight 5:22 AM CDT 8:40 PM CDT
Astronomical Twilight 4:50 AM CDT 9:12 PM CDT
Moon 7:54 AM CDT (8/8) 8:36 PM CDT (8/8)
Length of Visible Light 14h 16m
Length of Day
13h 25m
Waxing Crescent, 3% of the Moon is Illuminated
Aug 8
Waxing Crescent
Aug 14
First Quarter
Aug 20
Full
Aug 28
Last Quarter
Sep 5
New

Hourly Weather History & Observations

Time (CDT) Temp. Heat Index Dew Point Humidity Pressure Visibility Wind Dir Wind Speed Gust Speed Precip Events Conditions
12:53 AM 82.0 °F 91.0 °F 78.1 °F 88% 29.94 in 10.0 mi Calm Calm - N/A   Clear
1:53 AM 82.0 °F 91.0 °F 78.1 °F 88% 29.93 in 10.0 mi Calm Calm - N/A   Partly Cloudy
2:53 AM 81.0 °F 88.6 °F 78.1 °F 91% 29.92 in 6.0 mi Calm Calm - N/A   Clear
3:53 AM 81.0 °F 88.6 °F 78.1 °F 91% 29.91 in 7.0 mi Calm Calm - N/A   Clear
4:53 AM 80.1 °F 85.8 °F 77.0 °F 90% 29.91 in 5.0 mi Calm Calm - N/A   Clear
5:53 AM 80.1 °F 86.4 °F 78.1 °F 94% 29.91 in 6.0 mi Calm Calm - N/A   Clear
6:53 AM 80.1 °F 86.4 °F 78.1 °F 94% 29.93 in 6.0 mi Calm Calm - 0.01 in   Partly Cloudy
7:53 AM 84.0 °F 96.0 °F 79.0 °F 85% 29.94 in 10.0 mi ENE 3.5 mph - N/A   Partly Cloudy
8:53 AM 87.1 °F 99.8 °F 78.1 °F 74% 29.96 in 10.0 mi East 4.6 mph - N/A   Mostly Cloudy
9:01 AM 87.8 °F 99.7 °F 77.0 °F 70% 29.95 in 10.0 mi ESE 4.6 mph - N/A   Mostly Cloudy
9:53 AM 89.1 °F 100.2 °F 75.9 °F 65% 29.96 in 10.0 mi ESE 4.6 mph - N/A   Mostly Cloudy
10:53 AM 91.0 °F 101.6 °F 75.0 °F 59% 29.96 in 10.0 mi NE 8.1 mph - N/A   Mostly Cloudy
11:11 AM 89.6 °F 99.8 °F 75.2 °F 62% 29.97 in 10.0 mi ENE 4.6 mph - N/A   Scattered Clouds
11:53 AM 91.9 °F 100.7 °F 73.0 °F 54% 29.96 in 10.0 mi East 6.9 mph - N/A   Scattered Clouds
12:53 PM 84.9 °F 91.4 °F 73.0 °F 67% 29.96 in 10.0 mi ESE 15.0 mph 19.6 mph N/A   Partly Cloudy
1:53 PM 86.0 °F 90.7 °F 70.0 °F 59% 29.94 in 10.0 mi ESE 5.8 mph - N/A   Clear
2:53 PM 89.1 °F 99.1 °F 75.0 °F 63% 29.93 in 10.0 mi SSE 9.2 mph - N/A   Clear
3:53 PM 90.0 °F 100.2 °F 75.0 °F 61% 29.92 in 8.0 mi SSE 10.4 mph - N/A   Clear
4:53 PM 90.0 °F 100.2 °F 75.0 °F 61% 29.91 in 10.0 mi SSE 9.2 mph - N/A   Clear
5:53 PM 89.1 °F 101.4 °F 77.0 °F 67% 29.91 in 10.0 mi SE 8.1 mph - N/A   Partly Cloudy
6:53 PM 88.0 °F 98.5 °F 75.9 °F 67% 29.92 in 10.0 mi SE 10.4 mph - N/A   Clear
7:53 PM 87.1 °F 97.3 °F 75.9 °F 69% 29.92 in 10.0 mi SE 6.9 mph - N/A   Scattered Clouds
8:53 PM 86.0 °F 96.0 °F 75.9 °F 72% 29.94 in 10.0 mi ESE 6.9 mph - N/A   Scattered Clouds
9:53 PM 84.9 °F 94.1 °F 75.9 °F 74% 29.94 in 10.0 mi SE 6.9 mph - N/A   Partly Cloudy
10:53 PM 86.0 °F 96.0 °F 75.9 °F 72% 29.93 in 10.0 mi SE 9.2 mph - N/A   Partly Cloudy
11:53 PM 84.9 °F 94.1 °F 75.9 °F 74% 29.93 in 10.0 mi SE 9.2 mph - N/A   Partly Cloudy